Vertical_Velocity
1 -0 -1 2 -1 -1 -3 -4 -2 -1 -2 -4 -1 0 -7 -3 2 1 -3 -1 -4 1 -3 -1 -3 1 1 -0 -0 -1 -1 -1 -2 -1 -7 1 -3 0 4 1 -1 1 5 2 1
-0 -1 -4 -1 2 -0 -0 -1 -2 -5 -1 -5 -1 0 -1 -8 1 1 -10 -1 3 2 -6 2 1 1 5 -0 -3 -0 -5 4 1 -4 -8 -0 -1 0 -3 1 1 -1 -1 3 2
-3 2 -1 -4 -2 -4 -1 3 -0 -3 -5 -2 1 -2 -4 -4 -0 -0 -2 2 -5 -2 0 1 -1 -2 4 5 2 -8 -8 5 2 1 -4 -3 3 -2 -1 -4 2 -4 -3 -4 -5
1 -5 -3 -1 -1 -0 -1 -1 -2 -1 -2 -2 0 -1 -5 1 -6 -1 -2 -4 2 -5 -4 -5 -1 -1 -0 6 0 -8 4 2 1 8 1 6 -3 1 -8 -5 2 1 1 -2 -2
-2 1 -4 -4 -1 -5 -3 -2 -3 -3 -1 -3 -1 -5 2 -6 5 -4 -1 -1 -1 0 -3 -1 1 -1 -3 -6 2 -1 4 1 -1 3 -4 2 0 9 -14 9 0 -3 1 1 3
-1 -2 -2 -0 -6 -5 -4 -4 -3 -2 -5 -3 -5 0 -4 -12 1 -5 -6 3 -2 -4 4 1 -2 -1 -1 -0 -2 -3 -0 -1 2 2 -5 -3 -3 16 -4 8 4 -4 -6 -4 -1
-1 -0 -3 -2 1 -3 -4 -9 -0 -2 -6 -4 -5 -6 -12 9 -6 4 -6 -8 10 -2 -9 6 4 2 -2 3 -0 -1 -12 0 17 1 -11 8 -8 -17 5 6 4 3 3 2 -4
-3 -1 -2 -1 -1 -0 -3 -3 -4 -2 -3 -3 -7 -4 -28 4 5 -5 -3 -1 -5 9 -0 7 2 -2 -1 1 2 -1 -1 -7 5 4 8 9 -19 -1 5 3 -1 -3 -3 0 -0
-2 -4 -4 -14 -0 -5 -6 -4 -3 -3 -0 0 -7 -2 -30 -6 8 1 3 -1 -3 -5 -1 6 0 -0 0 -3 -1 -1 -3 -9 1 7 3 8 -7 -2 6 4 1 1 -0 -1 -1
-7 2 -1 -1 -4 -1 -1 -4 -2 -7 1 -2 1 -8 -1 -9 -3 6 1 3 2 -4 2 -0 5 2 -7 7 -19 -3 -3 -3 -11 0 3 -2 -5 -4 -4 2 -3 1 2 1 1
-6 -6 3 -8 -2 -5 3 -2 -1 -4 -0 -1 1 -0 -4 -5 -7 -4 -5 -4 1 2 -5 3 2 -14 3 5 9 5 4 -3 -5 -8 3 -8 -4 -9 -3 1 -4 0 0 0 -2
1 1 -2 -6 -4 1 -1 -8 -1 -1 -26 13 -9 -9 -1 14 -14 -10 0 -2 5 -3 2 2 -15 3 7 2 4 4 1 -3 -5 -6 3 1 -15 -6 -5 -5 1 -2 -3 -1 5
-7 -1 1 -9 0 -3 -3 -2 -3 -4 -10 -19 4 -1 8 -0 -4 -16 6 6 2 3 -2 -1 11 -1 1 4 2 3 4 -3 0 -6 -1 -1 -42 -17 -3 -3 -1 4 0 -3 -2
-4 6 -1 4 -4 -1 2 2 -9 -5 -10 -10 -1 2 4 5 -9 5 -2 3 7 1 6 1 6 2 -1 0 3 6 -4 5 0 7 -3 1 -29 -20 -9 -9 0 1 0 0 -2
-6 -0 3 2 -1 2 -0 -1 -3 -9 -1 5 -4 -1 -5 4 1 5 8 3 -1 2 6 -10 4 -4 1 -1 11 5 8 4 4 2 5 10 2 22 -1 -3 -3 -2 0 -0 5
-6 -1 3 0 2 -0 -6 -2 3 -5 -19 4 10 1 2 3 5 -10 3 3 -1 6 1 -1 9 1 -4 3 0 5 3 -1 2 7 7 10 6 -59 1 -13 -12 -1 7 7 -0
2 -12 -3 6 5 3 -0 0 -2 -2 7 4 4 10 5 1 3 2 1 -0 0 2 -1 1 -4 -2 -0 -3 -4 5 11 -3 -1 6 -12 5 10 -38 5 4 -2 -8 -3 -5 0
-3 -2 -3 -1 -10 -2 2 2 3 5 4 11 9 -2 -0 3 6 6 2 2 2 6 10 1 -6 1 -0 5 -2 3 -1 -8 -3 -1 -6 3 -2 -0 0 7 3 1 1 -5 -0
1 -0 2 4 -2 2 3 -6 -16 -3 -1 -3 -23 -0 4 6 -4 -2 2 3 3 6 2 2 -2 10 3 1 3 9 7 13 9 5 8 -9 -2 -4 7 -4 -5 -1 3 -0 -2
-3 -1 9 0 -2 2 6 -8 -9 -5 10 10 2 -1 -3 -6 7 -4 -2 4 4 -14 9 10 -9 1 3 0 7 1 -4 -2 5 -0 1 -3 2 2 1 -6 0 1 -0 -2 -4
3 -6 -3 3 1 8 -11 -1 -3 3 19 9 -3 2 -4 -2 3 -3 2 -19 -9 6 11 0 4 -6 4 4 3 3 2 1 -1 1 1 1 5 5 1 -3 1 -1 1 2 2
-3 -7 -2 3 7 5 -7 -5 7 -4 9 4 -6 -1 1 8 3 9 -10 2 0 1 -7 -1 -9 -6 -7 -4 -4 0 -1 9 0 -4 0 2 2 9 -4 0 -7 3 1 -8 -6
-5 -3 -3 11 2 -7 -3 -4 1 -3 9 -2 -4 6 7 -4 15 -2 -4 -4 -4 -3 -9 -1 2 -4 -8 -2 1 4 8 2 2 2 -3 -2 -15 4 -11 -2 -11 -18 -4 -9 -19
18 9 1 5 3 3 1 -4 2 1 -10 8 -5 3 9 1 18 -6 -8 -9 2 0 11 12 6 -0 -9 -15 4 -2 -4 4 -1 0 -2 -12 -7 1 -5 -0 6 12 -11 -3 -9
-2 -9 -6 -11 3 -4 8 3 5 -9 7 8 -12 -4 4 -6 -11 12 1 -5 0 -0 -11 7 -5 9 -4 -6 13 -1 1 6 1 4 2 -9 -11 9 -3 -2 -1 -1 -6 9 1
-2 -1 -2 -5 7 2 8 -14 -7 6 7 -7 -7 9 10 39 21 11 -2 -1 -5 -4 -2 -0 -23 11 -13 -1 5 1 3 -4 2 -8 -5 1 -21 19 1 -0 4 -8 2 2 -8
-3 1 3 -1 -2 1 -1 -6 -6 11 -13 -1 0 -6 -10 4 8 6 16 10 4 -2 0 4 6 11 -16 9 10 7 -26 -0 -3 -3 -3 -4 7 -4 1 3 0 6 6 -3 -1
Height
3138 3138 3137 3136 3135 3135 3133 3132 3131 3130 3130 3128 3126 3127 3125 3124 3125 3123 3122 3121 3120 3120 3120 3120 3119 3118 3119 3119 3119 3119 3119 3115 3117 3118 3118 3119 3118 3118 3118 3118 3118 3119 3122 3123 3124
3133 3133 3133 3133 3132 3132 3130 3129 3127 3127 3126 3125 3122 3123 3121 3120 3120 3118 3119 3116 3116 3116 3117 3117 3116 3116 3116 3116 3116 3116 3114 3113 3113 3114 3115 3117 3116 3116 3116 3116 3117 3117 3119 3120 3121
3130 3129 3129 3129 3128 3127 3126 3125 3123 3122 3121 3119 3119 3119 3117 3117 3115 3114 3114 3114 3113 3114 3115 3115 3114 3114 3113 3113 3113 3112 3110 3111 3111 3112 3111 3112 3113 3112 3113 3113 3114 3115 3116 3117 3118
3125 3125 3125 3123 3123 3122 3121 3120 3118 3116 3115 3114 3113 3114 3113 3114 3115 3111 3110 3110 3109 3109 3109 3110 3111 3111 3109 3108 3107 3107 3107 3108 3107 3108 3107 3106 3107 3108 3109 3110 3110 3111 3112 3113 3114
3119 3120 3120 3120 3119 3118 3118 3116 3113 3111 3109 3108 3108 3108 3107 3108 3109 3105 3105 3104 3105 3103 3103 3105 3107 3106 3104 3103 3102 3101 3102 3102 3102 3101 3101 3100 3101 3102 3103 3106 3106 3106 3107 3108 3109
3113 3113 3114 3113 3114 3113 3113 3112 3109 3106 3105 3103 3103 3102 3101 3100 3100 3100 3100 3099 3099 3099 3100 3100 3101 3101 3099 3097 3098 3096 3095 3096 3095 3093 3094 3095 3096 3095 3098 3099 3100 3101 3102 3103 3104
3106 3106 3106 3106 3106 3107 3106 3105 3103 3101 3100 3099 3097 3096 3096 3096 3095 3095 3093 3094 3094 3094 3094 3095 3095 3095 3096 3093 3092 3090 3088 3088 3089 3089 3090 3088 3086 3087 3093 3092 3091 3092 3095 3096 3098
3099 3099 3099 3099 3099 3100 3100 3099 3097 3095 3094 3093 3091 3089 3087 3090 3088 3088 3087 3088 3088 3088 3089 3091 3089 3089 3088 3091 3087 3086 3085 3081 3083 3085 3085 3083 3077 3083 3085 3083 3083 3084 3086 3087 3089
3092 3092 3092 3091 3091 3091 3092 3091 3089 3088 3087 3084 3084 3083 3082 3083 3083 3080 3081 3083 3083 3084 3083 3083 3083 3084 3085 3085 3083 3080 3077 3078 3077 3079 3078 3076 3071 3077 3078 3076 3076 3076 3078 3080 3082
3085 3085 3084 3084 3083 3083 3082 3083 3082 3079 3078 3076 3074 3078 3077 3078 3077 3076 3077 3077 3078 3078 3078 3079 3077 3075 3078 3080 3072 3073 3074 3072 3073 3074 3073 3069 3065 3068 3072 3069 3070 3071 3071 3073 3076
3078 3077 3076 3076 3076 3074 3075 3075 3076 3071 3068 3069 3068 3065 3067 3070 3070 3072 3072 3071 3071 3071 3073 3072 3070 3066 3070 3074 3073 3072 3069 3066 3066 3070 3065 3061 3055 3060 3063 3062 3063 3064 3066 3068 3069
3070 3069 3069 3069 3069 3068 3067 3069 3067 3063 3053 3062 3058 3053 3059 3059 3053 3065 3066 3065 3065 3063 3066 3067 3059 3065 3067 3067 3067 3066 3065 3062 3062 3065 3064 3055 3041 3048 3053 3054 3057 3059 3060 3061 3063
3061 3061 3061 3061 3061 3062 3063 3063 3063 3058 3049 3041 3053 3046 3048 3049 3043 3053 3054 3055 3054 3054 3057 3057 3056 3059 3061 3061 3061 3059 3059 3060 3060 3061 3058 3052 3026 3038 3043 3044 3049 3052 3054 3056 3058
3050 3051 3051 3052 3056 3056 3057 3056 3057 3057 3050 3038 3040 3039 3039 3037 3038 3039 3042 3043 3045 3042 3047 3046 3050 3053 3055 3054 3058 3050 3056 3056 3057 3058 3053 3054 3027 3025 3032 3037 3041 3046 3048 3050 3051
3043 3045 3045 3044 3046 3049 3053 3051 3052 3057 3057 3038 3037 3036 3038 3039 3037 3038 3035 3033 3034 3039 3042 3035 3040 3045 3045 3047 3053 3046 3052 3052 3052 3051 3050 3045 3050 3017 3025 3030 3034 3039 3042 3043 3044
3037 3040 3042 3043 3042 3044 3047 3048 3050 3058 3047 3040 3034 3033 3035 3035 3033 3035 3038 3035 3034 3032 3031 3032 3035 3035 3037 3042 3043 3047 3047 3047 3047 3046 3040 3038 3046 3005 3026 3028 3028 3031 3035 3035 3036
3031 3035 3039 3039 3040 3040 3043 3046 3050 3049 3039 3038 3037 3035 3033 3034 3034 3032 3033 3033 3034 3032 3027 3026 3027 3029 3031 3033 3036 3038 3042 3043 3042 3040 3025 3030 3035 3019 3024 3023 3024 3025 3027 3027 3027
3027 3029 3033 3034 3035 3039 3040 3043 3041 3034 3035 3036 3036 3031 3034 3031 3033 3030 3030 3027 3029 3031 3028 3023 3023 3022 3024 3027 3028 3028 3032 3034 3030 3027 3022 3024 3019 3018 3017 3017 3016 3016 3018 3019 3018
3021 3023 3026 3029 3029 3032 3036 3036 3028 3027 3034 3033 3034 3033 3031 3029 3032 3031 3027 3025 3025 3027 3027 3023 3021 3020 3021 3023 3024 3026 3025 3028 3025 3021 3023 3015 3015 3015 3013 3011 3010 3011 3011 3010 3011
3016 3020 3022 3022 3025 3026 3027 3022 3023 3027 3028 3030 3028 3032 3030 3029 3028 3031 3029 3027 3024 3025 3023 3020 3018 3019 3019 3018 3019 3019 3023 3024 3022 3020 3015 3006 3006 3006 3005 3005 3003 3003 3003 3003 3004
3010 3012 3017 3019 3020 3020 3017 3019 3018 3023 3024 3024 3023 3024 3027 3026 3023 3022 3023 3026 3027 3024 3022 3020 3016 3017 3017 3016 3015 3016 3018 3022 3022 3018 3013 3005 3004 3003 3004 3004 3004 3001 3000 2998 2995
3004 3009 3009 3013 3017 3011 3010 3013 3015 3015 3018 3016 3015 3017 3019 3022 3016 3016 3016 3017 3021 3019 3018 3018 3014 3013 3013 3014 3011 3010 3012 3012 3015 3016 3012 3008 3006 3001 3004 3001 3002 3003 3001 2997 2995
2998 3000 3004 3006 3005 3004 3008 3007 3008 3009 3009 3009 3009 3013 3012 3013 3011 3007 3006 3010 3012 3013 3013 3013 3008 3010 3008 3008 3006 3005 3005 3006 3008 3007 3004 3005 3004 3000 3002 3005 2999 2997 2998 2997 2996
2994 2995 2998 2999 3000 3000 3001 3001 3000 3001 3002 3003 3004 3004 3004 3002 3002 2999 2998 3002 3005 3007 3007 3007 3005 3005 3004 3004 3005 3003 3004 3006 3005 3004 3001 2999 2997 2999 2998 3000 2996 2994 2995 2995 2993
2987 2990 2991 2993 2993 2995 2998 2994 2995 2995 2996 2996 2994 2996 2999 2994 2991 2989 2990 2994 2996 2997 2999 3001 2998 2999 2997 2997 2998 2998 2999 2999 2998 2996 2995 2991 2995 2993 2996 2994 2994 2989 2992 2991 2988
2983 2987 2987 2988 2989 2990 2989 2990 2988 2989 2990 2987 2989 2988 2988 2985 2985 2984 2985 2988 2986 2987 2989 2990 2989 2990 2988 2990 2990 2988 2989 2990 2990 2990 2989 2988 2987 2991 2989 2989 2987 2985 2987 2986 2985
2978 2981 2981 2981 2982 2983 2982 2983 2982 2983 2982 2982 2982 2982 2979 2979 2976 2975 2976 2976 2976 2979 2981 2984 2984 2984 2981 2983 2982 2981 2980 2981 2982 2982 2983 2982 2984 2984 2983 2983 2983 2984 2982 2980 2979